Regional Weather Roundup
Issued by NWS

Home | Current Version | Previous Version | Graphics & Text | Print | Product List | Glossary On
Versions: 1 2 3 4 5 6 7 8 9 10 11 12 13 14 15 16 17 18 19 20 21 22 23 24 25 26 27 28 29 30 31 32 33 34 35 36 37 38 39 40 41 42 43 44 45 46 47 48 49 50
000
ASUS43 KFSD 170910
RWRSD

WEATHER ROUNDUP FOR SOUTH DAKOTA
NATIONAL WEATHER SERVICE SIOUX FALLS SD
400 AM CDT THU APR 17 2014

NOTE: "FAIR" INDICATES FEW OR NO CLOUDS BELOW 12,000 FEET WITH NO
SIGNIFICANT WEATHER AND/OR OBSTRUCTIONS TO VISIBILITY.


SDZ001>005-009-010-012>017-171000-
NORTHWEST AND NORTH CENTRAL SOUTH DAKOTA

CITY           SKY/WX    TMP DP  RH WIND       PRES   REMARKS
BUFFALO          N/A     29  25  85 SE8       30.08F WCI  21
FAITH            N/A     29  21  72 SE9       30.20S WCI  20
MOBRIDGE       CLOUDY    26  15  63 E10       30.23S WCI  16
$$

SDZ012>016-024>037-041>051-057-063-072>074-171000-
SOUTHWEST AND SOUTH CENTRAL SOUTH DAKOTA

CITY           SKY/WX    TMP DP  RH WIND       PRES   REMARKS
RAPID CTY ARPT CLOUDY    28  25  88 S9        30.16F WCI  19
PIERRE         CLEAR     22  18  85 CALM      30.24R
CUSTER         CLOUDY    26  24  92 W3        30.07S
ELLSWORTH AFB  CLOUDY    30  26  86 S14       30.15F WCI  19
PHILIP         CLOUDY    30  24  78 E3        30.24R
PINE RIDGE     CLOUDY    30  26  85 SE5       30.17F WCI  25
SPEARFISH      CLOUDY    28  27  93 E5        30.10F WCI  23
WINNER         FAIR      25  20  81 W5        30.24R WCI  19
$$

SDZ004>011-016>023-039-040-171000-
NORTHEAST SOUTH DAKOTA

CITY           SKY/WX    TMP DP  RH WIND       PRES   REMARKS
ABERDEEN       CLEAR     19  16  88 N8        30.27R WCI   9
WATERTOWN      CLEAR     17  14  88 N10       30.19S WCI   5
SISSETON         N/A     20  17  88 NW9       30.24R WCI   9
$$

SDZ017-020-022-023-036>040-048>070-171000-
SOUTHEAST SOUTH DAKOTA

CITY           SKY/WX    TMP DP  RH WIND       PRES   REMARKS
SIOUX FALLS    CLOUDY    27  22  81 N10       30.19R WCI  17
HURON          CLEAR     17  14  88 N6        30.24S WCI   9
CHAMBERLAIN      N/A     22  19  89 CALM      30.25R
MITCHELL       CLEAR     23  21  92 NW9       30.25R WCI  13
YANKTON        PTCLDY    28  23  80 NW7       30.24R WCI  21
$$

ABBREVIATIONS USED IN REMARKS
   TC - TEMPERATURE IN CELSIUS
  WCI - WIND CHILL INDEX
   HX - HEAT INDEX
  VSB - VISIBILITY




USA.gov is the U.S. government's official web portal to all federal, state and local government web resources and services.